Showing default

QIANFAN-61, 62791

Orbit data source: Space-Track

QIANFAN-61, 62791 is a Chinese payload satellite in LEO that was launched on Thu, 23 Jan 2025 UTC via a CHANG ZHENG 6A launch vehicle from the Taiyaun Space Center, China (TSC). Payload-class satellites include a variety of spacecraft equipped with specific instruments for various scientific and technological missions. These include communications satellites like Starlink; space stations such as the ISS; scientific satellites like the Hubble; Earth observation satellites from companies like Planet Labs, Umbra, and HawkEye 360; GPS; miniature CubeSats for education and research; and military/defense satellites.

Loading next visibility...
Identifier
62791, 2025-016G
Orbit
LEO
Country
Flag of CNCN / PRC
Related business
Manufacturer
SECM
Mission
Operational Commercial Communications
Bus & Motor
QIANFAN, Unknown motor
Mass
267 kg wet, ~267 kg dry
Launch date (UTC)
2025-01-23 (1 year ago)
Launch vehicle
CHANG ZHENG 6A
Launch site
Taiyaun Space Center, China (TSC)
Object type
Payload
Rocket body
Debris
Shape & HBR
Box + 1 Pan, 1.4 m
Radar Cross Section
13.200 m², Large (>1 m²)

Expand to show TLE details & history
Last TLE update: 6 hours ago

TLE from 6 hours ago
0 QIANFAN-61
1 62791U 25016G   26035.80552838  .00000103  00000-0  14007-3 0  9993
2 62791  88.9784  97.6818 0015161 178.9998 181.1186 13.50990968 54549
Epoch: 2026-02-04T19:19Z
TLE epoch observation values (Epoch: 2026-02-04T19:19:57.652Z)
Latitude
-0.00001°
Longitude
32.72475°
Altitude
1,082.858 km
Speed
7.305 km/s
True Right ascension
06h 30m 43s
True Declination
0° 00' 00"
Sunlit
Object was in full shadow at epoch
Visualization orbit readout
Latitude
Unknown
Longitude
Unknown
Altitude
Unknown
Speed
Unknown
Apparent Right ascension
Unknown
Apparent Declination
Unknown
Sunlit
N/A
Visualization observer readout
Local Sidereal Time
03:17:19
Azimuth
Unknown
Elevation
Unknown
Doppler factor
Unknown
Orbital elements
Apogee altitude
1,076.951 km
Perigee altitude
1,054.38 km
Semi-major axis
7,443.803 km
Eccentricity
0.00152
Inclination
88.9784°
RAAN
97.6818°
Arg. of periapsis
178.9998°
True anomaly
181.11521°
Mean anomaly
181.1186°
Eccentric anomaly
181.11691°
Mean motion
3.37949 °/min
Orbital period
106.53 mins
BSTAR
0.00014007
Loading maneuver chart data...
Computing Atmospheric mass density...
Loading historical data...
Loading historical data...
Loading historical data...
Loading historical data...
Loading historical data...
Loading historical data...
Loading historical data...

Documentation

Showing up to 5 results
|